Weather History for Westhampton Beach, NY

Change the Weather History Date:

Sunday, April 28, 2013

  Actual Average Record
Temperature  
Mean Temperature 50 °F -  
Max Temperature 61 °F 59 °F 70 °F (2003)
Min Temperature 39 °F 38 °F 28 °F (2012)
Degree Days  
Heating Degree Days 16    
Moisture  
Dew Point 40 °F    
Average Humidity 73    
Maximum Humidity 100    
Minimum Humidity 33    
Precipitation  
Precipitation 0.00 in - - ()
Sea Level Pressure  
Sea Level Pressure 30.32 in    
Wind  
Wind Speed 3 mph (SSE)    
Max Wind Speed 10 mph    
Max Gust Speed 18 mph    
Visibility 6 miles    
Events Fog    
Averages and records for this station are not official NWS values.
T = Trace of Precipitation, MM = Missing Value Source: NWS Daily Summary

Daily Weather History Graph

Daily Weather History Graph

Search for Another Location

Airport:

Trip Planner

Search our weather history database for the weather conditions in past years. The results will help you decide how hot, cold, wet, or windy it might be!

Date:

Astronomy

Apr. 28, 2013 Rise Set
Actual Time 5:52 AM EDT 7:44 PM EDT
Civil Twilight 5:22 AM EDT 8:13 PM EDT
Nautical Twilight 4:47 AM EDT 8:49 PM EDT
Astronomical Twilight 4:08 AM EDT 9:28 PM EDT
Moon 11:12 PM EDT (4/28) 8:05 AM EDT (4/28)
Length of Visible Light 14h 50m
Length of Day
13h 51m
Waning Gibbous, 89% of the Moon is Illuminated
Apr 28
Waning Gibbous
May 2
Last Quarter
May 9
New
May 18
First Quarter
May 25
Full

Hourly Weather History & Observations

Time (EDT) Temp. Windchill Dew Point Humidity Pressure Visibility Wind Dir Wind Speed Gust Speed Precip Events Conditions
12:04 AM 42.8 °F - 41.0 °F 93% 30.36 in 0.5 mi Calm Calm - N/A Fog Fog
12:13 AM 42.8 °F - 39.2 °F 87% 30.36 in 0.2 mi Calm Calm - N/A Fog Fog
12:53 AM 43.0 °F - 41.0 °F 93% 30.35 in 0.2 mi Calm Calm - N/A Fog Fog
1:53 AM 42.1 °F - 41.0 °F 96% 30.34 in 0.2 mi Calm Calm - N/A Fog Fog
2:53 AM 44.1 °F - 43.0 °F 96% 30.33 in 0.2 mi Calm Calm - N/A Fog Fog
3:53 AM 42.1 °F 40.2 °F 39.9 °F 92% 30.32 in 0.2 mi WSW 3.5 mph - N/A Fog Fog
4:53 AM 39.9 °F - 39.0 °F 97% 30.32 in 0.2 mi Calm Calm - N/A Fog Fog
5:53 AM 39.9 °F - 39.9 °F 100% 30.32 in 0.2 mi Calm Calm - N/A Fog Fog
6:30 AM 42.8 °F 41.1 °F 41.0 °F 93% 30.33 in 0.2 mi SE 3.5 mph - N/A Fog Fog
6:53 AM 44.1 °F - 42.1 °F 93% 30.34 in 0.2 mi Calm Calm - N/A Fog Fog
7:46 AM 44.6 °F - 44.6 °F 100% 30.35 in 0.8 mi Calm Calm - N/A   Overcast
7:53 AM 46.0 °F - 45.0 °F 96% 30.35 in 2.5 mi Calm Calm - N/A   Overcast
8:00 AM 46.4 °F 44.3 °F 46.4 °F 100% 30.34 in 7.0 mi South 4.6 mph - N/A   Mostly Cloudy
8:11 AM 48.2 °F - 46.4 °F 93% 30.35 in 10.0 mi SSE 3.5 mph - N/A   Scattered Clouds
9:53 AM 57.0 °F - 33.1 °F 40% 30.36 in 10.0 mi South 6.9 mph - N/A   Clear
10:53 AM 59.0 °F - 33.1 °F 38% 30.35 in 10.0 mi South 8.1 mph - N/A   Clear
11:53 AM 59.0 °F - 30.0 °F 33% 30.36 in 10.0 mi SSE 8.1 mph - N/A   Clear
12:53 PM 60.1 °F - 32.0 °F 35% 30.35 in 10.0 mi South 10.4 mph - N/A   Clear
1:53 PM 59.0 °F - 33.1 °F 38% 30.34 in 10.0 mi South 10.4 mph - N/A   Clear
2:53 PM 57.9 °F - 32.0 °F 37% 30.32 in 10.0 mi South 10.4 mph - N/A   Clear
3:53 PM 57.9 °F - 30.0 °F 35% 30.30 in 10.0 mi South 8.1 mph - N/A   Clear
4:53 PM 57.0 °F - 30.9 °F 37% 30.30 in 10.0 mi South 8.1 mph 18.4 mph N/A   Clear
5:53 PM 55.9 °F - 42.1 °F 60% 30.29 in 10.0 mi South 10.4 mph - N/A   Clear
6:53 PM 53.1 °F - 43.0 °F 69% 30.27 in 10.0 mi South 6.9 mph - N/A   Clear
7:53 PM 52.0 °F - 43.0 °F 71% 30.27 in 10.0 mi SSE 8.1 mph - N/A   Clear
8:53 PM 51.1 °F - 44.1 °F 77% 30.27 in 10.0 mi SSE 5.8 mph - N/A   Clear
9:53 PM 52.0 °F - 43.0 °F 71% 30.27 in 10.0 mi SSE 6.9 mph - N/A   Clear
10:53 PM 52.0 °F - 44.1 °F 74% 30.28 in 10.0 mi SSE 5.8 mph - N/A   Clear
11:53 PM 51.1 °F - 44.1 °F 77% 30.28 in 10.0 mi SSE 6.9 mph - N/A   Clear